Location: Sperry Observatory
(40.6664°N, 74.3236°W)
Time: 11:09:51
(UTC-05:00)

Amateur Radio Satellites - All Passes

Search period start: 12 February 2016 10:39
Search period end: 13 February 2016 10:39
Location: Sperry Observatory, 40.6664°N, 74.3236°W

Satellite Date Start Highest point End Downlink Frequencies (MHz)
Time Altitude Azimuth
VELOX 1 12 Feb 10:47:13 10:50:58 26° 96° (E) 10:54:40 145.980
AIST 1 12 Feb 10:50:11 10:54:15 36° 283° (WNW) 10:58:20
ANTELSAT 12 Feb 10:51:50 10:54:10 14° 268° (W) 10:56:30 437.575/2403.000
TIGRISAT 12 Feb 10:58:11 11:00:09 13° 269° (W) 11:02:05 435.000
DANDE 12 Feb 10:58:20 10:59:34 11° 52° (NE) 11:00:45 436.750
UKube-1 12 Feb 11:02:03 11:06:00 34° 98° (E) 11:09:56 .
AISAT 12 Feb 11:04:04 11:08:16 42° 99° (E) 11:12:25 437.250
SPROUT 12 Feb 11:08:10 11:10:11 13° 91° (E) 11:12:12 437.525
BUGSAT 1 12 Feb 11:08:30 11:12:41 75° 258° (WSW) 11:16:51 437.445
CUBEBUG 1 12 Feb 11:15:51 11:20:04 46° 99° (E) 11:24:13 437.445
DX 1 12 Feb 11:18:41 11:23:01 64° 102° (ESE) 11:27:18 434.975-435.025
POLYITAN 1 12 Feb 11:22:13 11:25:44 25° 264° (W) 11:29:14 437.675
QB50P2 12 Feb 11:22:47 11:26:15 24° 265° (W) 11:29:42 145.880/145.840
JAS-2 12 Feb 11:35:20 11:41:20 27° 64° (ENE) 11:46:54 435.910
ESTCUBE 1 12 Feb 11:36:37 11:41:10 76° 285° (WNW) 11:45:40 437.505/2401.250
AO-85 12 Feb 11:37:42 11:41:04 16° 323° (NW) 11:44:27 145.980
Cosmos 2499 12 Feb 11:40:11 11:46:07 19° 298° (WNW) 11:52:07 435.465 / 435.565
50 SAT 12 Feb 11:41:40 11:45:21 50° 286° (WNW) 11:49:03 437.505
CUSAT 1 12 Feb 11:41:56 11:47:01 35° 70° (ENE) 11:50:56 437.405
PCSat 12 Feb 11:43:26 11:47:29 21° 314° (NW) 11:51:34 145.827
SO-50 12 Feb 11:45:40 11:49:21 21° 43° (NE) 11:52:56 436.795
POPSAT HIP 1 12 Feb 11:53:49 11:55:32 12° 269° (W) 11:57:17 437.405
DUCHIFAT 1 12 Feb 11:57:02 11:58:39 12° 269° (W) 12:00:18 145.980
NANOSAT C BR1 12 Feb 11:57:04 11:58:30 11° 269° (W) 11:59:56 145.865
RS-15 12 Feb 12:16:09 12:27:08 59° 311° (NW) 12:38:48 29.354- 29.394
Oscar 19 12 Feb 12:16:46 12:21:52 60° 73° (ENE) 12:26:58 437.125/150
VELOX 1 12 Feb 12:23:38 12:27:22 27° 292° (WNW) 12:31:05 145.980
DANDE 12 Feb 12:37:40 12:44:26 68° 77° (ENE) 12:49:27 436.750
UKube-1 12 Feb 12:38:36 12:41:51 21° 294° (WNW) 12:45:04 .
TISAT 1 12 Feb 12:40:38 12:44:43 52° 100° (E) 12:48:46 437.305
AISAT 12 Feb 12:41:27 12:44:25 18° 295° (WNW) 12:47:23 437.250
SPROUT 12 Feb 12:42:19 12:46:28 51° 287° (WNW) 12:50:35 437.525
CUBEBUG 1 12 Feb 12:53:16 12:55:58 16° 296° (WNW) 12:58:39 437.445
DX 1 12 Feb 12:56:51 12:58:40 12° 298° (WNW) 13:00:29 434.975-435.025
YUBILEINY 12 Feb 13:02:16 13:10:17 37° 71° (ENE) 13:18:12 435.215
ITUPSAT 1 12 Feb 13:02:37 13:05:35 16° 92° (E) 13:08:34 437.325
BEESAT 12 Feb 13:08:51 13:12:16 19° 93° (E) 13:15:40 436.000
Gurwin Techsat 1B 12 Feb 13:10:02 13:15:19 71° 74° (ENE) 13:20:38 435.225
Cosmos 2491 12 Feb 13:11:18 13:16:54 19° 78° (ENE) 13:22:30 435.465 / 435.565
AO-7 12 Feb 13:14:42 13:21:12 26° 55° (NE) 13:27:43 29.400- 29.500
JAS-2 12 Feb 13:18:25 13:25:57 62° 259° (WSW) 13:32:50 435.910
CUSAT 1 12 Feb 13:24:55 13:28:49 21° 277° (W) 13:32:03 437.405
SO-50 12 Feb 13:25:30 13:30:13 57° 242° (WSW) 13:34:45 436.795
ITAMSAT 1 12 Feb 13:31:44 13:36:50 60° 72° (ENE) 13:41:58 435.822/435.867
ISS 12 Feb 13:42:36 13:44:58 19° 132° (SE) 13:47:21 145.825
Oscar 19 12 Feb 13:58:27 14:01:34 16° 269° (W) 14:04:42 437.125/150
SWISSCUBE 12 Feb 14:00:32 14:05:22 72° 102° (ESE) 14:10:09 437.505
TISAT 1 12 Feb 14:17:51 14:19:56 14° 296° (WNW) 14:22:03 437.305
DANDE 12 Feb 14:22:33 14:26:08 16° 283° (WNW) 14:29:16 436.750
HORYU 2 12 Feb 14:28:31 14:31:22 17° 64° (ENE) 14:34:13 437.375
RS-15 12 Feb 14:33:59 14:42:55 25° 341° (NNW) 14:52:13 29.354- 29.394
ITUPSAT 1 12 Feb 14:39:03 14:43:44 53° 288° (WNW) 14:48:24 437.325
Cosmos 2504 12 Feb 14:43:55 14:51:32 34° 70° (ENE) 14:58:40 435.465 / 435.565
BEESAT 12 Feb 14:45:42 14:50:15 44° 289° (WNW) 14:54:47 436.000
Gurwin Techsat 1B 12 Feb 14:53:07 14:55:46 14° 270° (W) 14:58:26 435.225
YUBILEINY 12 Feb 14:58:53 15:07:15 49° 272° (W) 15:15:35 435.215
Cosmos 2491 12 Feb 15:03:50 15:12:33 84° 277° (W) 15:21:20 435.465 / 435.565
AO-7 12 Feb 15:04:48 15:13:11 76° 254° (WSW) 15:21:35 29.400- 29.500
ITAMSAT 1 12 Feb 15:13:33 15:16:42 16° 269° (W) 15:19:52 435.822/435.867
STARS 12 Feb 15:13:54 15:17:38 27° 96° (E) 15:21:22 437.465
ISS 12 Feb 15:18:02 15:21:12 47° 328° (NNW) 15:24:21 145.825
M-CUBED/EXP-1 PRIME 12 Feb 15:18:22 15:21:57 67° 252° (WSW) 15:25:21 437.505
AUBIESAT-1 12 Feb 15:25:32 15:29:05 68° 253° (WSW) 15:32:28 437.475
KKS-1 12 Feb 15:38:15 15:42:42 83° 284° (WNW) 15:47:07 437.445
SWISSCUBE 12 Feb 15:40:17 15:42:33 13° 299° (WNW) 15:44:49 437.505
Cubesat XI-IV 12 Feb 15:49:14 15:50:59 12° 58° (ENE) 15:52:45 437.490
MOZHAYETS 4 12 Feb 15:52:50 15:57:26 56° 100° (E) 16:01:59
BEESAT 3 12 Feb 16:00:02 16:03:54 51° 117° (ESE) 16:07:46 437.485
O/OREOS (USA 219) 12 Feb 16:01:00 16:04:18 19° 56° (NE) 16:07:37 437.305
HORYU 2 12 Feb 16:03:20 16:07:34 45° 260° (W) 16:11:50 437.375
BEESAT 2 12 Feb 16:29:29 16:33:29 69° 120° (ESE) 16:37:30 435.950
Cosmos 2504 12 Feb 16:37:03 16:45:12 51° 271° (W) 16:52:46 435.465 / 435.565
CUBESAT XI-V 12 Feb 16:42:34 16:45:55 19° 92° (E) 16:49:15 437.345
AO-85 12 Feb 16:47:40 16:50:52 16° 37° (NE) 16:53:56 145.980
STARS 12 Feb 16:50:18 16:53:55 26° 292° (WNW) 16:57:33 437.465
RS-15 12 Feb 16:52:00 17:01:12 24° 18° (NNE) 17:10:36 29.354- 29.394
BRITE-PL 12 Feb 16:52:26 16:56:56 25° 67° (ENE) 17:01:19 437.365/2234.400
ISS 12 Feb 16:56:20 16:58:15 15° 347° (NNW) 17:00:10 145.825
AO-7 12 Feb 17:03:26 17:07:12 14° 272° (W) 17:11:00 29.400- 29.500
Cosmos 2491 12 Feb 17:05:34 17:10:49 17° 299° (WNW) 17:16:07 435.465 / 435.565
CUTE-I 12 Feb 17:10:16 17:15:30 62° 73° (ENE) 17:20:48 437.470
AIST 2 12 Feb 17:11:33 17:14:29 19° 111° (ESE) 17:17:27 435.215
Cubesat XI-IV 12 Feb 17:24:52 17:30:12 84° 74° (ENE) 17:35:35 437.490
MOZHAYETS 4 12 Feb 17:31:24 17:34:08 16° 296° (WNW) 17:36:51
LilacSat-2 12 Feb 17:37:02 17:40:50 80° 256° (WSW) 17:44:40 437.200
BEESAT 3 12 Feb 17:39:16 17:41:56 17° 316° (NW) 17:44:37 437.485
O/OREOS (USA 219) 12 Feb 17:39:33 17:43:57 45° 253° (WSW) 17:48:19 437.305
GOMX 1 12 Feb 17:42:28 17:47:18 36° 71° (ENE) 17:51:56 467.674
HO-68 12 Feb 18:01:38 18:07:17 26° 59° (ENE) 18:12:57 435.675
BEESAT 2 12 Feb 18:09:38 18:11:49 14° 318° (NW) 18:14:01 435.950
CUBESAT XI-V 12 Feb 18:19:03 18:23:29 42° 289° (WNW) 18:27:52 437.345
AO-85 12 Feb 18:27:04 18:32:15 86° 58° (ENE) 18:36:56 145.980
GONETS M04 12 Feb 18:28:04 18:35:37 30° 69° (ENE) 18:43:06
BRITE-PL 12 Feb 18:29:39 18:35:06 47° 262° (W) 18:40:25 437.365/2234.400
ISS 12 Feb 18:34:09 18:35:45 13° 8° (N) 18:37:22 145.825
STRAND 1 12 Feb 18:35:13 18:39:54 34° 97° (E) 18:44:33 437.568
CUTE 1.7 + AOD 2 12 Feb 18:42:01 18:45:30 25° 69° (ENE) 18:49:00 437.475
SEEDS 12 Feb 18:43:25 18:46:28 20° 67° (ENE) 18:49:33 437.485
DOVE 4 12 Feb 18:45:54 18:50:57 77° 76° (ENE) 18:55:43 437.250
PCSat 12 Feb 18:46:29 18:51:45 48° 56° (NE) 18:56:59 145.827
AIST 2 12 Feb 18:48:45 18:52:42 40° 308° (NW) 18:56:40 435.215
AAUSAT CUBESAT 2 12 Feb 18:50:17 18:52:33 14° 65° (ENE) 18:54:49 437.432
CUTE-I 12 Feb 18:52:45 18:55:59 16° 269° (W) 18:59:13 437.470
RS-15 12 Feb 19:05:20 19:17:15 56° 48° (NE) 19:29:17 29.354- 29.394
CUBEBUG 2 12 Feb 19:06:34 19:08:54 15° 65° (ENE) 19:11:12 437.445
Cubesat XI-IV 12 Feb 19:09:16 19:10:55 11° 271° (W) 19:12:35 437.490
CINEMA 3 12 Feb 19:18:10 19:22:39 56° 74° (ENE) 19:26:57 145.822/145.860
GOMX 1 12 Feb 19:20:47 19:25:22 28° 265° (W) 19:29:48 467.674
CANX-2 12 Feb 19:26:47 19:31:00 87° 259° (W) 19:35:16 2200.000
Cosmos 2499 12 Feb 19:36:02 19:43:26 34° 70° (ENE) 19:50:17 435.465 / 435.565
DELFI C3 12 Feb 19:40:57 19:42:02 11° 63° (ENE) 19:43:06 145.870
ZACube-1 12 Feb 19:46:53 19:49:55 20° 67° (ENE) 19:52:55 437.345
HO-68 12 Feb 19:47:20 19:54:25 65° 257° (WSW) 20:01:36 435.675
FUNcube-1 12 Feb 19:54:02 19:57:16 22° 68° (ENE) 20:00:30 145.935
COMPASS 1 12 Feb 19:57:49 20:01:58 79° 257° (WSW) 20:06:10 437.405
PRISM 12 Feb 20:07:45 20:11:57 82° 283° (WNW) 20:16:05 437.425
ISS 12 Feb 20:10:00 20:12:58 32° 28° (NNE) 20:15:56 145.825
AO-85 12 Feb 20:10:49 20:11:50 11° 256° (WSW) 20:12:48 145.980
STRAND 1 12 Feb 20:14:33 20:18:57 29° 293° (WNW) 20:23:20 437.568
CUTE 1.7 + AOD 2 12 Feb 20:17:44 20:21:16 26° 265° (W) 20:24:50 437.475
SEEDS 12 Feb 20:18:10 20:21:57 33° 263° (W) 20:25:48 437.485
Oscar 11 12 Feb 20:21:00 20:25:14 62° 75° (ENE) 20:29:31 145.826/435.025
AAUSAT CUBESAT 2 12 Feb 20:23:39 20:27:38 48° 261° (W) 20:31:40 437.432
GONETS M04 12 Feb 20:24:19 20:32:55 60° 269° (W) 20:41:31
DOVE 4 12 Feb 20:27:25 20:29:03 11° 270° (W) 20:30:38 437.250
PCSat 12 Feb 20:30:36 20:34:48 23° 253° (WSW) 20:39:00 145.827
UWE-3 12 Feb 20:34:51 20:39:05 82° 255° (WSW) 20:43:17 435.000/436.395/437.385
CUBEBUG 2 12 Feb 20:40:59 20:45:09 49° 261° (W) 20:49:14 437.445
AIST 1 12 Feb 20:57:12 21:01:27 50° 79° (E) 21:05:37
CINEMA 3 12 Feb 20:57:55 21:00:05 13° 269° (W) 21:02:12 145.822/145.860
DELFI C3 12 Feb 21:12:29 21:16:24 61° 259° (W) 21:20:23 145.870
TIGRISAT 12 Feb 21:13:00 21:14:09 11° 90° (E) 21:15:19 435.000
HUMSAT D 12 Feb 21:13:04 21:17:02 51° 73° (ENE) 21:21:00 437.325/437.525
RS-15 12 Feb 21:18:13 21:29:38 49° 251° (WSW) 21:41:08 29.354- 29.394
ZACube-1 12 Feb 21:22:12 21:26:00 33° 263° (W) 21:29:47 437.345
Cosmos 2499 12 Feb 21:28:56 21:36:48 49° 271° (W) 21:44:04 435.465 / 435.565
FUNcube-1 12 Feb 21:29:45 21:33:24 29° 264° (W) 21:37:02 145.935
VELOX 1 12 Feb 21:44:27 21:48:02 24° 67° (ENE) 21:51:36 145.980
ISS 12 Feb 21:46:29 21:49:22 30° 225° (SW) 21:52:16 145.825
UNISAT 6 12 Feb 21:56:23 22:00:26 36° 98° (E) 22:04:32 437.425
UKube-1 12 Feb 21:56:25 22:00:09 29° 69° (ENE) 22:03:53 .
Oscar 11 12 Feb 22:00:35 22:01:47 11° 270° (W) 22:02:59 145.826/435.025
AISAT 12 Feb 22:01:06 22:05:12 37° 70° (ENE) 22:09:19 437.250
SPROUT 12 Feb 22:03:09 22:04:10 11° 62° (ENE) 22:05:12 437.525
CUBEBUG 1 12 Feb 22:11:21 22:15:27 38° 71° (ENE) 22:19:33 437.445
DX 1 12 Feb 22:13:38 22:17:53 52° 73° (ENE) 22:22:10 434.975-435.025
QB50P1 12 Feb 22:14:36 22:16:25 12° 91° (E) 22:18:12 145.935-145.965
50 SAT 12 Feb 22:21:11 22:24:52 71° 75° (ENE) 22:28:35 437.505
PHONESAT 2.4 12 Feb 22:33:14 22:35:15 15° 149° (SSE) 22:37:16 2401.200-2431.200
ESTCUBE 1 12 Feb 22:35:27 22:39:59 87° 253° (WSW) 22:44:34 437.505/2401.250
AIST 1 12 Feb 22:36:37 22:38:32 13° 276° (W) 22:40:27
ANTELSAT 12 Feb 22:41:09 22:45:30 72° 286° (WNW) 22:49:56 437.575/2403.000
TIGRISAT 12 Feb 22:46:55 22:51:14 65° 285° (WNW) 22:55:38 435.000
HUMSAT D 12 Feb 22:51:27 22:53:00 12° 270° (W) 22:54:32 437.325/437.525
BUGSAT 1 12 Feb 22:52:04 22:54:27 15° 93° (E) 22:56:47 437.445
POLYITAN 1 12 Feb 23:06:40 23:10:46 50° 100° (E) 23:14:53 437.675
QB50P2 12 Feb 23:07:08 23:11:16 53° 100° (E) 23:15:23 145.880/145.840
VELOX 1 12 Feb 23:20:22 23:24:21 32° 263° (W) 23:28:21 145.980
TISAT 1 12 Feb 23:32:01 23:35:54 37° 71° (ENE) 23:39:47 437.305
UKube-1 12 Feb 23:32:37 23:36:10 25° 264° (W) 23:39:45 .
UNISAT 6 12 Feb 23:33:41 23:36:56 21° 293° (WNW) 23:40:13 437.425
SPROUT 12 Feb 23:35:16 23:39:33 73° 258° (WSW) 23:43:51 437.525
POPSAT HIP 1 12 Feb 23:36:00 23:40:12 75° 285° (WNW) 23:44:24 437.405
AISAT 12 Feb 23:38:30 23:41:48 20° 266° (W) 23:45:06 437.250
DUCHIFAT 1 12 Feb 23:38:31 23:42:42 75° 284° (WNW) 23:46:52 145.980
NANOSAT C BR1 12 Feb 23:38:36 23:42:48 71° 284° (WNW) 23:46:57 145.865
QB50P1 12 Feb 23:48:25 23:52:31 52° 287° (WNW) 23:56:36 145.935-145.965
CUBEBUG 1 12 Feb 23:48:38 23:51:51 19° 266° (W) 23:55:04 437.445
DX 1 12 Feb 23:52:09 23:54:23 14° 268° (W) 23:56:38 434.975-435.025
DANDE 13 Feb 00:03:16 00:08:07 17° 79° (E) 00:13:07 436.750
PHONESAT 2.4 13 Feb 00:08:52 00:12:05 54° 164° (SSE) 00:15:18 2401.200-2431.200
ITUPSAT 1 13 Feb 00:09:12 00:12:32 19° 64° (ENE) 00:15:54 437.325
BEESAT 13 Feb 00:15:05 00:18:43 22° 65° (ENE) 00:22:22 436.000
BEESAT 3 13 Feb 00:18:08 00:21:36 28° 50° (NE) 00:25:02 437.485
BUGSAT 1 13 Feb 00:26:15 00:30:01 39° 288° (WNW) 00:33:45 437.445
Oscar 19 13 Feb 00:29:27 00:33:19 21° 93° (E) 00:37:10 437.125/150
JAS-2 13 Feb 00:31:01 00:34:07 15° 89° (E) 00:37:07 435.910
CUSAT 1 13 Feb 00:40:47 00:48:31 53° 92° (E) 00:56:07 437.405
POLYITAN 1 13 Feb 00:43:57 00:46:10 14° 296° (WNW) 00:48:24 437.675
QB50P2 13 Feb 00:44:31 00:46:39 14° 296° (WNW) 00:48:45 145.880/145.840
BEESAT 2 13 Feb 00:48:17 00:52:01 36° 52° (NE) 00:55:42 435.950
SWISSCUBE 13 Feb 01:06:31 01:11:17 79° 74° (ENE) 01:16:05 437.505
TISAT 1 13 Feb 01:08:47 01:11:41 18° 267° (W) 01:14:36 437.305
Cosmos 2491 13 Feb 01:14:41 01:23:07 49° 75° (ENE) 01:31:31 435.465 / 435.565
Gurwin Techsat 1B 13 Feb 01:27:00 01:31:36 29° 95° (E) 01:36:09 435.225
AIST 2 13 Feb 01:33:01 01:35:22 15° 42° (NE) 01:37:43 435.215
DANDE 13 Feb 01:41:50 01:49:48 82° 97° (E) 01:58:20 436.750
ITUPSAT 1 13 Feb 01:45:26 01:50:01 47° 261° (W) 01:54:39 437.325
ITAMSAT 1 13 Feb 01:45:38 01:49:38 22° 94° (E) 01:53:37 435.822/435.867
PHONESAT 2.4 13 Feb 01:45:59 01:49:17 90° 213° (SSW) 01:52:34 2401.200-2431.200
BEESAT 13 Feb 01:51:48 01:56:15 39° 262° (W) 02:00:45 436.000
BEESAT 3 13 Feb 01:55:59 01:59:16 25° 247° (WSW) 02:02:31 437.485
YUBILEINY 13 Feb 02:02:46 02:10:48 42° 87° (E) 02:18:52 435.215
Oscar 19 13 Feb 02:07:58 02:12:50 44° 290° (WNW) 02:17:40 437.125/150
STARS 13 Feb 02:10:29 02:14:02 25° 67° (ENE) 02:17:36 437.465
JAS-2 13 Feb 02:14:21 02:19:49 60° 289° (WNW) 02:24:55 435.910
CUSAT 1 13 Feb 02:23:42 02:30:59 36° 289° (WNW) 02:38:07 437.405
BEESAT 2 13 Feb 02:26:47 02:29:39 19° 249° (WSW) 02:32:29 435.950
KKS-1 13 Feb 02:35:40 02:40:08 85° 73° (ENE) 02:44:37 437.445
SWISSCUBE 13 Feb 02:49:00 02:49:38 10° 271° (W) 02:50:17 437.505
MOZHAYETS 4 13 Feb 02:54:16 02:58:40 50° 73° (ENE) 03:03:06
Gurwin Techsat 1B 13 Feb 03:06:45 03:11:33 35° 292° (WNW) 03:16:20 435.225
AO-7 13 Feb 03:07:09 03:14:46 38° 98° (E) 03:22:17 29.400- 29.500
AIST 2 13 Feb 03:10:13 03:14:20 69° 240° (WSW) 03:18:24 435.215
Cosmos 2491 13 Feb 03:11:58 03:19:39 36° 275° (W) 03:27:22 435.465 / 435.565
Cosmos 2504 13 Feb 03:21:30 03:28:35 29° 82° (E) 03:35:50 435.465 / 435.565
PHONESAT 2.4 13 Feb 03:23:17 03:26:28 50° 198° (SSW) 03:29:38 2401.200-2431.200
ITAMSAT 1 13 Feb 03:24:19 03:29:18 45° 290° (WNW) 03:34:15 435.822/435.867
DANDE 13 Feb 03:27:22 03:33:42 24° 296° (WNW) 03:40:14 436.750
SO-50 13 Feb 03:38:45 03:43:29 52° 117° (ESE) 03:48:17 436.795
CUBESAT XI-V 13 Feb 03:45:50 03:49:08 19° 65° (ENE) 03:52:27 437.345
STARS 13 Feb 03:46:25 03:50:16 30° 263° (W) 03:54:09 437.465
HORYU 2 13 Feb 03:54:34 03:58:35 32° 97° (E) 04:02:36 437.375
YUBILEINY 13 Feb 03:59:18 04:07:31 43° 286° (WNW) 04:15:50 435.215
M-CUBED/EXP-1 PRIME 13 Feb 04:32:03 04:35:31 89° 107° (ESE) 04:39:13 437.505
MOZHAYETS 4 13 Feb 04:33:25 04:36:07 15° 269° (W) 04:38:50
AUBIESAT-1 13 Feb 04:38:37 04:42:08 88° 103° (ESE) 04:45:53 437.475
AO-7 13 Feb 04:59:46 05:07:38 49° 297° (WNW) 05:15:29 29.400- 29.500
PHONESAT 2.4 13 Feb 05:01:34 05:03:15 13° 212° (SSW) 05:04:56 2401.200-2431.200
Cosmos 2504 13 Feb 05:12:46 05:21:18 62° 282° (WNW) 05:30:09 435.465 / 435.565
LilacSat-2 13 Feb 05:13:10 05:14:11 11° 91° (E) 05:15:11 437.200
SO-50 13 Feb 05:20:18 05:24:16 24° 316° (NW) 05:28:17 436.795
CUBESAT XI-V 13 Feb 05:21:41 05:26:10 45° 261° (W) 05:30:43 437.345
CUTE-I 13 Feb 05:28:10 05:32:36 25° 95° (E) 05:37:00 437.470
HORYU 2 13 Feb 05:31:28 05:34:59 23° 293° (WNW) 05:38:30 437.375
Cubesat XI-IV 13 Feb 05:42:43 05:47:38 34° 97° (E) 05:52:29 437.490
STRAND 1 13 Feb 05:50:39 05:55:32 47° 71° (ENE) 06:00:28 437.568
O/OREOS (USA 219) 13 Feb 06:13:19 06:16:38 21° 101° (E) 06:19:58 437.305
BRITE-PL 13 Feb 06:35:30 06:40:05 61° 100° (E) 06:44:21 437.365/2234.400
LilacSat-2 13 Feb 06:45:07 06:48:47 48° 286° (WNW) 06:52:25 437.200
DOVE 4 13 Feb 06:46:29 06:49:20 18° 93° (E) 06:52:09 437.250
AO-7 13 Feb 06:56:32 06:58:23 11° 318° (NW) 07:00:14 29.400- 29.500
PRISM 13 Feb 06:56:37 07:00:45 68° 74° (ENE) 07:04:55 437.425
CUTE-I 13 Feb 07:07:44 07:12:45 41° 291° (WNW) 07:17:45 437.470
CANX-2 13 Feb 07:13:15 07:16:03 17° 92° (E) 07:18:50 2200.000
Cosmos 2504 13 Feb 07:13:21 07:16:44 12° 304° (NW) 07:20:11 435.465 / 435.565
CINEMA 3 13 Feb 07:15:05 07:16:39 12° 91° (E) 07:18:13 145.822/145.860
HO-68 13 Feb 07:16:04 07:21:53 26° 94° (E) 07:27:38 435.675
GOMX 1 13 Feb 07:22:37 07:26:59 84° 284° (WNW) 07:31:09 467.674
Cubesat XI-IV 13 Feb 07:22:55 07:27:35 31° 293° (WNW) 07:32:14 437.490
GONETS M04 13 Feb 07:29:15 07:36:44 34° 85° (E) 07:44:15
STRAND 1 13 Feb 07:31:14 07:34:56 20° 267° (W) 07:38:41 437.568
COMPASS 1 13 Feb 07:42:10 07:44:56 17° 92° (E) 07:47:41 437.405
O/OREOS (USA 219) 13 Feb 07:51:37 07:55:45 36° 298° (WNW) 07:59:58 437.305
SEEDS 13 Feb 08:02:03 08:06:03 38° 98° (E) 08:10:02 437.485
CUTE 1.7 + AOD 2 13 Feb 08:02:07 08:06:19 52° 99° (E) 08:10:31 437.475
AAUSAT CUBESAT 2 13 Feb 08:06:38 08:10:10 26° 95° (E) 08:13:41 437.432
Oscar 11 13 Feb 08:10:40 08:12:14 12° 90° (E) 08:13:48 145.826/435.025
Cosmos 2499 13 Feb 08:11:39 08:18:48 29° 82° (E) 08:26:00 435.465 / 435.565
BRITE-PL 13 Feb 08:15:48 08:17:57 13° 299° (WNW) 08:20:02 437.365/2234.400
DOVE 4 13 Feb 08:23:23 08:27:12 34° 289° (WNW) 08:30:57 437.250
UWE-3 13 Feb 08:25:20 08:28:26 19° 94° (E) 08:31:34 435.000/436.395/437.385
CUBEBUG 2 13 Feb 08:31:56 08:35:43 31° 97° (E) 08:39:35 437.445
AO-85 13 Feb 08:40:27 08:45:14 35° 113° (ESE) 08:50:12 145.980
CANX-2 13 Feb 08:48:02 08:52:04 41° 288° (WNW) 08:56:07 2200.000
CINEMA 3 13 Feb 08:50:04 08:54:07 53° 286° (WNW) 08:58:13 145.822/145.860
DELFI C3 13 Feb 08:51:44 08:54:29 17° 93° (E) 08:57:13 145.870
UNISAT 6 13 Feb 08:55:16 08:59:01 30° 70° (ENE) 09:02:45 437.425
HO-68 13 Feb 09:02:55 09:09:59 60° 291° (WNW) 09:17:00 435.675
ZACube-1 13 Feb 09:10:09 09:14:13 42° 99° (E) 09:18:20 437.345
COMPASS 1 13 Feb 09:16:43 09:20:40 39° 288° (WNW) 09:24:36 437.405
FUNcube-1 13 Feb 09:17:10 09:21:18 49° 99° (E) 09:25:30 145.935
GONETS M04 13 Feb 09:24:47 09:33:10 51° 284° (WNW) 09:41:38
AIST 1 13 Feb 09:26:16 09:30:07 30° 90° (E) 09:33:59
PCSat 13 Feb 09:27:43 09:32:53 47° 112° (ESE) 09:38:04 145.827
RS-15 13 Feb 09:30:23 09:39:35 32° 103° (ESE) 09:49:06 29.354- 29.394
SEEDS 13 Feb 09:38:32 09:41:29 18° 294° (WNW) 09:44:25 437.485
CUTE 1.7 + AOD 2 13 Feb 09:39:25 09:41:44 14° 295° (WNW) 09:44:03 437.475
ANTELSAT 13 Feb 09:39:35 09:43:53 86° 259° (W) 09:48:10 437.575/2403.000
AAUSAT CUBESAT 2 13 Feb 09:42:05 09:45:36 26° 291° (WNW) 09:49:04 437.432
BUGSAT 1 13 Feb 09:42:50 09:44:19 12° 63° (ENE) 09:45:48 437.445
Oscar 11 13 Feb 09:44:26 09:48:45 60° 286° (WNW) 09:53:01 145.826/435.025
TIGRISAT 13 Feb 09:45:09 09:49:27 78° 256° (WSW) 09:53:43 435.000
POLYITAN 1 13 Feb 09:59:04 10:02:56 36° 71° (ENE) 10:06:48 437.675
QB50P2 13 Feb 09:59:28 10:03:23 38° 71° (ENE) 10:07:17 145.880/145.840
UWE-3 13 Feb 10:01:09 10:04:59 34° 289° (WNW) 10:08:54 435.000/436.395/437.385
Cosmos 2499 13 Feb 10:02:36 10:11:16 63° 282° (WNW) 10:20:06 435.465 / 435.565
CUBEBUG 2 13 Feb 10:08:59 10:12:12 21° 292° (WNW) 10:15:27 437.445
AO-85 13 Feb 10:20:46 10:25:45 37° 311° (NW) 10:30:52 145.980
DELFI C3 13 Feb 10:25:48 10:29:30 35° 289° (WNW) 10:33:11 145.870
POPSAT HIP 1 13 Feb 10:27:52 10:32:05 77° 76° (ENE) 10:36:19 437.405
ESTCUBE 1 13 Feb 10:29:10 10:32:32 20° 93° (E) 10:35:53 437.505/2401.250
DUCHIFAT 1 13 Feb 10:29:49 10:34:00 75° 76° (ENE) 10:38:13 145.980
NANOSAT C BR1 13 Feb 10:30:07 10:34:20 80° 76° (ENE) 10:38:34 145.865
UNISAT 6 13 Feb 10:32:23 10:35:46 22° 265° (W) 10:39:08 437.425
